Flag for Argentina Weather past 2 weeks in Tucumán, Tucumán, Argentina

Now
63 °F

Overcast.


Feels Like: 63 °F
Forecast: 57 / 79 °F
Wind: 8 mph from Northeast

Location: Tucuman Aerodrome

Current Time: Aug 4, 2015 at 11:43:38 PM

Latest Report: Aug 4, 2015 at 11:00 PM


Visibility: 4 mi

Pressure: 29.95 "Hg

Humidity: 88%

Dew point: 59 °F

Location of TucumánLocation

Historic Weather in Tucumán — Graph

°F

Tucumán temperature yesterday

Maximum temperature yesterday: 75 °F (at 3:00 PM)
Minimum temperature yesterday: 54 °F (at 7:00 AM)
Average temperature yesterday: 65 °F

Past Weeks' High & Low Weather Summary

 TemperatureHumidityPressure
High90 °F (Jul 30, 2:00 AM)100% (Aug 4, 11:00 AM)30.39 "Hg (Aug 4, 11:00 AM)
Low41 °F (Jul 21, 4:00 AM)31% (Jul 24, 3:00 PM)29.68 "Hg (Aug 2, 3:00 PM)
Average61 °F69%29.99 "Hg
* Reported Jul 20 9:00 PM — Aug 4 9:00 PM, Tucumán, Weather by CustomWeather, © 2015

Note: Actual official high and low records may vary slightly from our data, if they occured in-between our weather recording intervals... More about our weather records

Advertising

Tucumán weather history for previous 24 hours

 ConditionsComfort  
Time TempWeatherWind HumidityBarometerVisibility
9:00 PM
Tue, Aug 4
64 °FMostly cloudy.No wind83%29.92 "Hg4 mi
7:00 PM64 °FMostly cloudy.9 mph83%29.89 "Hg3 mi
6:00 PM68 °FMostly cloudy.8 mph73%29.89 "Hg3 mi
5:00 PM68 °FPartly sunny.6 mph73%29.89 "Hg3 mi
4:00 PM68 °FBroken clouds.6 mph73%29.89 "Hg4 mi
3:00 PM64 °FFog.9 mph83%29.92 "Hg3 mi
2:00 PM64 °FFog.5 mph83%29.95 "Hg3 mi
1:00 PM61 °FFog.No wind94%29.98 "Hg2 mi
12:00 PM59 °FDrizzle. More clouds than sun.5 mph100%30.04 "Hg1 mi
11:00 AM59 °FDrizzle. More clouds than sun.5 mph100%30.04 "Hg1 mi
10:00 AM59 °FDrizzle. More clouds than sun.2 mph94%30.04 "Hg1 mi
9:00 AM59 °FDrizzle. More clouds than sun.No wind94%30.01 "Hg1 mi
8:00 AM59 °FDrizzle. Mostly cloudy.5 mph94%30.01 "Hg1 mi
6:00 AM61 °FDrizzle. Mostly cloudy.3 mph94%29.98 "Hg1 mi
5:00 AM63 °FOvercast.2 mph83%29.98 "Hg2 mi
4:00 AM63 °FOvercast.No wind83%30.01 "Hg2 mi
3:00 AM64 °FOvercast.No wind78%30.04 "Hg3 mi
2:00 AM64 °FOvercast.3 mph78%30.04 "Hg3 mi
1:00 AM64 °FOvercast.6 mph78%30.07 "Hg4 mi
12:00 AM66 °FOvercast.9 mph73%30.04 "Hg3 mi
11:00 PM
Mon, Aug 3
68 °FOvercast.8 mph73%30.04 "Hg2 mi
Weather by CustomWeather, © 2015

See weather overviewHow to use our weather pages